Abilene, TX

5:42 AM CST on February 28, 2017 (GMT -0600)
Abilene Regional

Weather History for KABI - April, 2013

Change the Weather History Date:

Monday, April 22, 2013

  Actual Average Record
Temperature  
Mean Temperature 72 °F 66 °F  
Max Temperature 86 °F 79 °F 97 °F (1955)
Min Temperature 58 °F 54 °F 33 °F (1927)
Degree Days  
Heating Degree Days 0 3  
Month to date heating degree days 125 97  
Since 1 July heating degree days 2221 2528  
Cooling Degree Days 7 4  
Month to date cooling degree days 92 62  
Year to date cooling degree days 138 96  
Growing Degree Days 22 (Base 50)    
Moisture  
Dew Point 54 °F    
Average Humidity 58    
Maximum Humidity 84    
Minimum Humidity 32    
Precipitation  
Precipitation 0.00 in 0.06 in 1.33 in (1915)
Month to date precipitation 1.72 1.09  
Year to date precipitation 4.22 5.21  
Sea Level Pressure  
Sea Level Pressure 29.86 in    
Wind  
Wind Speed 20 mph (South)    
Max Wind Speed 28 mph    
Max Gust Speed 36 mph    
Visibility 10 miles    
Events      
T = Trace of Precipitation, MM = Missing Value Source: NWS Daily Summary

Daily Weather History Graph

Daily Weather History Graph

Search for Another Location

Airport or City:

Trip Planner

Search our weather history database for the weather conditions in past years. The results will help you decide how hot, cold, wet, or windy it might be!

Date:

Astronomy

Apr. 22, 2013 Rise Set
Actual Time 7:01 AM CDT 8:13 PM CDT
Civil Twilight 6:35 AM CDT 8:39 PM CDT
Nautical Twilight 6:05 AM CDT 9:09 PM CDT
Astronomical Twilight 5:33 AM CDT 9:41 PM CDT
Moon 5:13 PM CDT (4/22) 4:45 AM CDT (4/22)
Length of Visible Light 14h 03m
Length of Day
13h 12m
Waxing Gibbous, 88% of the Moon is Illuminated
Apr 22
Waxing Gibbous
Apr 25
Full
May 2
Last Quarter
May 9
New
May 17
First Quarter

Hourly Weather History & Observations

Time (CDT) Temp. Heat Index Dew Point Humidity Pressure Visibility Wind Dir Wind Speed Gust Speed Precip Events Conditions
12:52 AM 60.1 °F - 51.1 °F 72% 29.99 in 10.0 mi SE 17.3 mph - N/A   Clear
1:52 AM 59.0 °F - 50.0 °F 72% 29.97 in 10.0 mi SE 20.7 mph 28.8 mph N/A   Clear
2:52 AM 59.0 °F - 51.1 °F 75% 29.94 in 10.0 mi SSE 21.9 mph 28.8 mph N/A   Clear
3:52 AM 59.0 °F - 52.0 °F 78% 29.92 in 10.0 mi SSE 24.2 mph 29.9 mph N/A   Clear
4:48 AM 59.0 °F - 53.6 °F 82% 29.97 in 10.0 mi South 18.4 mph 27.6 mph N/A   Mostly Cloudy
4:52 AM 59.0 °F - 54.0 °F 83% 29.92 in 10.0 mi SSE 17.3 mph 27.6 mph N/A   Mostly Cloudy
5:52 AM 60.1 °F - 55.0 °F 83% 29.91 in 10.0 mi South 24.2 mph 29.9 mph N/A   Overcast
6:02 AM 60.8 °F - 55.4 °F 82% 29.97 in 10.0 mi South 19.6 mph 26.5 mph N/A   Overcast
6:52 AM 60.1 °F - 55.0 °F 83% 29.92 in 10.0 mi South 20.7 mph 26.5 mph N/A   Overcast
7:52 AM 61.0 °F - 55.9 °F 83% 29.93 in 10.0 mi South 15.0 mph - N/A   Overcast
8:52 AM 64.0 °F - 55.9 °F 75% 29.92 in 10.0 mi South 23.0 mph 31.1 mph N/A   Mostly Cloudy
9:29 AM 64.4 °F - 55.4 °F 73% 29.98 in 10.0 mi South 23.0 mph 34.5 mph N/A   Scattered Clouds
9:52 AM 66.9 °F - 55.0 °F 66% 29.93 in 10.0 mi South 21.9 mph 32.2 mph N/A   Scattered Clouds
10:52 AM 68.0 °F - 55.9 °F 65% 29.94 in 10.0 mi SSW 19.6 mph 31.1 mph N/A   Partly Cloudy
11:52 AM 73.9 °F - 55.9 °F 53% 29.92 in 10.0 mi South 21.9 mph 29.9 mph N/A   Partly Cloudy
12:52 PM 77.0 °F - 55.0 °F 47% 29.89 in 10.0 mi South 23.0 mph 31.1 mph N/A   Clear
1:52 PM 81.0 °F 80.8 °F 55.9 °F 42% 29.84 in 10.0 mi SSW 19.6 mph 27.6 mph N/A   Clear
2:52 PM 82.0 °F 81.4 °F 55.0 °F 39% 29.81 in 10.0 mi SSW 25.3 mph 33.4 mph N/A   Clear
3:52 PM 84.0 °F 82.5 °F 53.1 °F 34% 29.77 in 10.0 mi SSW 24.2 mph 29.9 mph N/A   Clear
4:52 PM 84.9 °F - 52.0 °F 32% 29.74 in 10.0 mi South 19.6 mph 31.1 mph N/A   Clear
5:52 PM 84.9 °F - 51.1 °F 31% 29.72 in 10.0 mi SSW 20.7 mph 26.5 mph N/A   Clear
6:52 PM 84.9 °F - 51.1 °F 31% 29.71 in 10.0 mi SSW 16.1 mph 23.0 mph N/A   Clear
7:52 PM 82.0 °F - 50.0 °F 33% 29.70 in 10.0 mi South 15.0 mph 21.9 mph N/A   Clear
8:52 PM 78.1 °F - 54.0 °F 43% 29.71 in 10.0 mi SSE 16.1 mph - N/A   Clear
9:52 PM 75.0 °F - 54.0 °F 48% 29.73 in 10.0 mi SSE 17.3 mph 25.3 mph N/A   Clear
10:52 PM 73.0 °F - 55.0 °F 53% 29.73 in 10.0 mi South 18.4 mph 28.8 mph N/A   Clear
11:52 PM 71.1 °F - 55.9 °F 59% 29.73 in 10.0 mi South 17.3 mph 24.2 mph N/A   Clear